Flag for Canada Weather past 2 weeks in Winnipeg, Manitoba, Canada

Now
61 °F

Sprinkles. Mostly cloudy.


Feels Like: 61 °F
Forecast: N/A
Wind: 20 mph from North

Location: Winnipeg Int. Airportman.

Current Time: Aug 29, 2014 at 4:08:36 PM

Latest Report: Aug 29, 2014 at 2:00 PM


Visibility: 15 mi

Pressure: 29.85 "Hg

Humidity: 83%

Dew point: 55 °F

Location of WinnipegLocation

Historic Weather in Winnipeg — Graph

°F

Winnipeg temperature yesterday

Maximum temperature yesterday: 82 °F (at 4:00 PM)
Minimum temperature yesterday: 59 °F (at 2:00 AM)
Average temperature yesterday: 69 °F

Past Weeks' High & Low Weather Summary

 TemperatureHumidityPressure
High90 °F (Aug 15, 4:00 PM)100% (Aug 18, 1:00 AM)30.20 "Hg (Aug 18, 1:00 AM)
Low46 °F (Aug 26, 3:00 AM)39% (Aug 27, 3:00 PM)29.59 "Hg (Aug 24, 7:00 PM)
Average66 °F81%29.89 "Hg
* Reported Aug 14 2:00 PM — Aug 29 2:00 PM, Winnipeg, Weather by CustomWeather, © 2014

Note: Actual official high and low records may vary slightly from our data, if they occured in-between our weather recording intervals... More about our weather records

Advertising

Winnipeg weather history for previous 24 hours

 ConditionsComfort  
Time TempWeatherWind HumidityBarometerVisibility
2:00 PM
Aug 29
61 °FSprinkles. Mostly cloudy.20 mph83%29.85 "Hg15 mi
1:00 PM63 °FPartly sunny.20 mph88%29.82 "Hg10 mi
12:00 PM61 °FSprinkles. Cloudy.18 mph94%29.82 "Hg4 mi
11:00 AM63 °FThunderstorms. Mostly cloudy.15 mph94%29.79 "Hg3 mi
10:00 AM68 °FSprinkles. Mostly cloudy.13 mph88%29.76 "Hg8 mi
9:00 AM68 °FOvercast.2 mph88%29.77 "Hg8 mi
8:00 AM68 °FLow clouds.8 mph88%29.76 "Hg10 mi
7:00 AM66 °FLow clouds.3 mph94%29.76 "Hg10 mi
6:00 AM66 °FLow clouds.5 mph94%29.75 "Hg15 mi
5:00 AM66 °FPartly cloudy.8 mph94%29.76 "Hg15 mi
4:00 AM68 °FPassing clouds.13 mph88%29.76 "Hg15 mi
3:00 AM66 °FPassing clouds.14 mph94%29.77 "Hg15 mi
2:00 AM66 °FPassing clouds.13 mph94%29.76 "Hg15 mi
1:00 AM66 °FPassing clouds.16 mph94%29.76 "Hg15 mi
12:00 AM68 °FPassing clouds.20 mph88%29.75 "Hg15 mi
11:00 PM
Aug 28
68 °FPassing clouds.16 mph94%29.76 "Hg15 mi
10:00 PM70 °FPassing clouds.16 mph88%29.78 "Hg15 mi
9:00 PM72 °FPartly sunny.16 mph83%29.78 "Hg15 mi
8:00 PM75 °FPartly sunny.22 mph74%29.78 "Hg15 mi
7:00 PM79 °FPartly sunny.17 mph70%29.77 "Hg15 mi
6:00 PM82 °FScattered clouds.15 mph58%29.78 "Hg15 mi
5:00 PM82 °FBroken clouds.17 mph58%29.79 "Hg15 mi
4:00 PM82 °FScattered clouds.17 mph55%29.81 "Hg15 mi
Weather by CustomWeather, © 2014

See weather overviewHow to use our weather pages